Temperature
14 14 14 14 14 14 14 14 14 13 13 13 13 12 12 12 12 12 12 12 12 12 12 12 11 11 11 11 11 11 10 10 10 10 10 9 9 9
14 14 14 14 14 14 14 14 14 14 13 13 13 13 12 12 12 12 12 12 12 11 11 11 11 11 11 11 11 10 10 10 10 10 9 9 9 9
14 14 14 14 14 14 13 13 13 13 13 13 13 12 12 12 12 12 12 12 11 11 11 11 11 11 10 10 10 10 10 10 10 9 9 9 9 9
14 14 14 14 13 13 13 13 13 13 13 12 12 12 12 12 12 12 12 11 11 11 11 11 11 10 10 10 10 10 10 9 9 9 9 9 9 8
14 14 14 13 13 13 13 13 13 13 12 12 12 12 12 11 11 11 11 11 11 11 10 10 10 10 10 10 10 9 9 9 9 9 8 8 8 8
14 14 14 14 13 13 13 13 13 12 12 12 12 12 11 11 11 11 11 10 10 10 10 10 10 10 10 10 9 9 9 9 8 8 8 8 8 8
13 13 13 13 13 13 13 13 13 12 12 12 12 11 11 11 11 11 10 10 10 10 10 10 10 10 9 9 9 9 8 8 8 8 8 8 8 8
13 13 13 13 13 13 13 13 12 12 12 12 11 11 11 11 11 10 10 10 9 9 9 9 9 9 9 9 8 8 8 8 8 8 7 7 7 7
13 13 13 13 13 12 12 12 12 12 12 11 11 11 11 11 11 10 10 10 9 9 9 9 9 8 8 8 8 8 8 7 7 7 7 7 7 7
13 13 12 12 12 12 12 12 12 12 11 11 11 11 10 10 10 10 10 9 9 9 9 8 8 8 8 8 8 8 7 7 7 7 7 7 6 6
12 12 12 12 12 12 12 12 12 11 11 11 11 10 10 10 10 10 9 9 9 8 8 8 8 8 8 8 7 7 7 7 7 6 6 6 6 6
12 12 12 12 12 12 12 11 11 11 11 11 10 10 10 10 9 9 9 9 8 8 8 8 7 7 7 7 7 7 7 6 6 6 6 6 6 5
12 12 12 12 11 11 11 11 11 11 10 10 10 10 9 9 9 9 9 8 8 8 7 7 7 7 6 6 6 6 6 6 6 6 5 5 5 5
12 12 11 11 11 11 11 11 11 10 10 10 10 9 9 9 9 9 8 8 7 7 7 7 6 6 6 6 6 6 6 6 6 5 5 5 5 5
11 11 11 11 11 11 11 11 10 10 10 10 9 9 9 9 8 8 8 8 7 7 6 6 6 6 6 6 5 5 5 5 5 5 5 5 4 4
11 11 11 11 10 10 10 10 10 10 9 9 9 9 8 8 8 8 7 7 7 7 7 6 6 6 5 5 5 5 5 5 5 4 4 4 4 4
11 11 10 10 10 10 10 10 10 9 9 9 8 8 8 8 7 7 7 7 6 6 6 6 6 6 5 5 5 5 5 4 4 4 4 4 4 3
10 10 10 10 10 9 9 9 9 9 9 8 8 8 7 7 7 7 6 6 6 6 6 6 5 5 5 5 5 5 4 4 4 4 3 3 3 3
10 9 9 9 9 9 9 9 8 8 8 8 7 7 7 7 6 6 6 6 6 5 5 5 5 5 4 4 5 4 4 4 4 3 3 3 3 3
9 9 9 9 9 9 8 8 8 8 7 7 7 7 6 6 6 6 6 5 5 5 5 5 4 4 4 4 4 4 4 3 3 3 3 2 2 2
9 9 9 9 8 8 8 8 7 7 7 7 7 6 6 6 6 5 5 5 5 5 4 4 4 4 3 3 3 3 3 3 3 2 2 2 2 2
8 8 8 8 8 8 7 7 7 7 7 6 6 6 6 5 5 5 5 5 4 4 4 4 4 3 3 3 3 3 3 3 2 2 2 1 1 1
8 8 8 7 7 7 7 7 6 6 6 6 6 6 5 5 5 5 4 4 4 3 3 3 3 3 2 2 2 2 2 2 2 2 2 1 1 1
Wind_Speed
2 2 2 1 1 1 1 2 3 2 1 1 1 2 5 7 7 7 7 7 6 6 5 5 6 5 6 6 7 6 6 6 7 7 8 8 9 9
2 2 2 1 2 2 2 2 1 2 1 1 1 2 4 5 6 6 7 8 6 5 4 4 4 4 5 5 5 6 6 6 6 6 7 7 8 8
2 3 3 3 2 2 2 2 2 2 3 2 3 3 4 4 4 5 5 6 5 5 4 3 3 3 4 4 4 4 5 5 5 6 6 6 7 7
2 3 3 3 3 2 2 2 2 2 3 3 2 2 2 3 3 3 3 4 5 4 4 3 3 2 3 3 3 4 4 5 5 5 5 5 6 7
3 3 3 3 2 2 2 2 1 2 2 3 2 1 1 2 2 2 2 2 3 3 3 3 2 2 2 2 2 2 3 4 4 4 4 5 5 6
3 3 4 4 3 2 2 2 2 2 2 2 2 1 1 1 2 1 1 0 1 1 2 3 2 1 1 1 1 1 1 2 3 3 4 4 5 5
3 4 5 6 6 4 3 2 3 2 1 2 1 1 1 1 1 0 0 0 0 1 1 2 3 2 2 2 2 2 2 2 2 2 3 4 5 5
2 3 4 5 6 5 5 4 4 3 1 1 1 1 1 1 1 1 1 0 1 1 1 1 2 1 3 4 4 4 3 3 3 3 3 4 5 5
2 2 2 4 5 3 3 2 1 1 3 3 1 1 1 1 1 1 1 1 2 2 1 1 1 1 2 3 4 4 5 4 4 4 4 5 6 6
2 2 2 3 3 3 2 2 1 1 3 3 2 1 1 1 2 2 2 1 1 0 2 1 2 2 2 2 4 4 4 4 4 4 5 6 6 7
1 2 3 3 3 3 2 1 1 1 2 4 4 2 2 1 2 2 1 1 1 2 0 1 1 2 1 1 4 5 5 5 5 5 6 6 6 6
1 2 4 4 4 3 2 1 0 0 1 1 1 1 1 1 0 2 2 1 1 2 1 1 1 1 2 2 2 3 4 5 6 7 7 6 6 4
1 2 2 4 4 3 2 1 1 1 0 1 1 1 0 1 1 1 1 2 2 2 1 1 1 1 1 2 2 3 4 3 4 6 7 8 8 5
1 1 2 4 3 2 1 1 0 1 0 0 0 0 0 1 1 1 1 2 2 3 3 2 1 2 2 3 3 2 2 3 3 3 4 7 8 8
0 1 2 4 2 1 2 1 0 0 1 1 1 2 1 1 0 0 1 1 3 3 3 3 2 2 2 3 3 2 2 2 2 2 2 3 4 4
0 0 2 2 2 2 1 1 2 2 2 2 2 2 1 1 1 1 1 1 2 3 3 3 3 2 3 4 3 3 2 2 2 2 3 3 4 4
2 1 1 1 1 2 2 2 2 2 2 2 2 2 2 2 2 2 2 1 2 3 3 2 2 2 3 3 3 4 3 3 2 2 2 3 4 3
3 2 2 2 2 3 3 2 2 3 3 2 2 3 3 3 3 2 2 2 3 3 3 2 1 2 3 3 4 4 3 3 3 3 2 3 4 4
3 3 3 3 3 3 3 3 3 3 3 2 3 3 3 2 2 3 3 2 3 3 3 2 2 2 3 5 5 5 4 4 3 3 3 3 5 4
3 4 3 3 3 3 3 3 3 2 2 3 3 3 3 3 3 3 3 3 3 3 3 3 3 3 5 5 4 4 7 4 3 4 3 3 3 4
3 3 3 3 3 3 3 3 3 3 3 3 3 3 3 3 4 4 4 5 4 3 4 5 5 5 3 2 3 4 4 6 6 4 3 3 3 3
3 4 3 3 3 2 2 3 3 3 3 3 3 4 4 4 5 5 4 4 4 5 5 4 3 2 2 4 5 5 5 4 5 7 6 6 3 4
4 4 3 3 3 3 3 3 3 3 3 3 3 3 3 3 4 4 4 5 4 4 4 3 3 3 4 4 5 5 5 4 3 3 5 8 9 9
Wind_Direction
82 88 91 74 40 42 64 116 132 128 108 116 99 130 123 126 131 133 124 118 112 102 91 77 65 63 57 50 45 43 41 36 34 32 28 27 27 26
103 87 67 59 46 50 53 46 66 130 132 124 113 125 115 115 123 130 129 123 123 118 106 91 76 67 60 53 48 44 41 36 36 32 28 24 22 21
128 113 93 71 67 54 46 45 42 78 111 88 87 105 98 104 109 117 121 127 127 128 119 106 93 77 67 59 50 43 41 39 34 28 24 23 20 19
109 111 113 99 77 55 55 64 66 66 107 110 98 99 100 129 129 129 123 123 124 115 118 107 107 94 77 66 57 48 41 36 30 24 21 17 14 11
112 115 116 114 112 87 80 76 78 79 87 117 122 110 102 110 108 104 105 114 121 118 131 122 111 116 91 72 58 43 34 31 26 21 18 11 6 3
101 102 101 105 107 97 87 69 81 82 80 105 113 115 114 101 94 95 57 100 97 119 136 155 155 166 182 115 46 12 10 17 11 6 3 359 354 351
113 109 113 112 102 99 96 81 80 83 95 108 112 102 103 104 147 179 143 256 241 119 129 173 159 170 209 224 247 282 289 297 315 326 337 343 341 336
133 127 131 126 119 118 115 111 116 123 130 121 140 161 209 196 183 160 168 147 285 251 135 255 151 180 206 202 221 233 247 270 283 290 305 317 322 322
136 131 132 128 130 129 131 133 121 156 163 156 159 210 186 203 164 188 225 229 232 223 123 272 275 243 231 219 239 236 237 250 268 280 289 300 305 306
150 140 134 123 121 120 146 164 190 193 185 175 172 188 109 140 173 194 210 251 307 20 114 236 277 263 250 222 244 237 241 255 272 285 294 301 303 302
123 105 123 123 115 111 121 148 161 247 161 153 160 150 121 74 83 90 78 91 288 279 287 163 269 281 261 232 248 248 246 250 266 281 290 296 298 296
135 105 94 113 117 119 133 134 173 279 78 98 129 179 171 166 101 146 160 168 255 273 267 148 282 331 301 272 231 239 248 256 263 273 281 288 296 286
145 133 130 130 135 139 130 137 203 186 181 157 168 190 176 169 164 164 170 181 207 251 250 130 253 259 245 280 277 237 230 243 259 268 272 277 278 268
152 134 133 139 138 145 144 160 61 43 115 89 160 204 213 237 225 178 253 276 262 240 227 180 215 229 256 281 282 276 253 239 225 240 263 275 270 267
68 127 143 155 151 170 207 209 129 142 165 196 223 239 235 225 171 8 294 299 310 281 249 247 226 239 233 248 262 270 279 267 228 236 252 255 255 257
204 111 168 189 196 183 197 217 210 201 196 213 226 238 250 238 230 220 238 277 302 296 280 268 260 235 257 260 255 265 257 248 265 257 263 266 265 252
181 174 170 184 209 202 199 204 204 208 224 230 228 238 241 236 240 228 210 215 250 271 286 296 282 271 261 255 260 262 263 266 261 252 267 276 268 241
180 194 201 201 207 210 206 210 208 215 221 220 224 226 233 236 242 238 226 228 248 258 261 269 295 320 323 302 246 254 261 259 265 257 252 266 275 266
198 210 213 213 219 217 212 211 215 217 213 214 224 232 239 244 246 245 236 241 251 254 258 254 244 242 271 282 278 251 249 261 264 262 252 254 264 268
209 212 218 220 219 215 214 218 224 222 220 224 228 233 236 240 248 249 242 243 255 261 260 254 238 233 240 258 270 277 254 248 250 254 262 271 274 277
217 220 221 221 219 213 210 212 219 226 229 227 229 233 236 239 247 249 246 253 252 252 253 253 252 257 255 264 279 280 272 259 256 254 256 273 288 289
220 220 224 224 221 219 215 217 223 224 226 231 238 241 237 236 244 246 242 249 253 252 259 265 263 257 252 257 268 274 279 290 286 282 272 258 246 257
225 219 216 217 216 219 222 228 232 233 231 234 240 244 247 250 247 243 243 244 253 260 267 269 268 257 253 254 262 271 271 277 280 288 283 275 272 272
Height
1549 1549 1549 1549 1549 1549 1549 1550 1551 1551 1552 1552 1552 1552 1552 1552 1551 1551 1551 1551 1550 1550 1549 1549 1548 1547 1546 1545 1544 1543 1542 1541 1540 1539 1538 1537 1536 1535
1548 1549 1549 1549 1549 1549 1549 1549 1550 1550 1551 1551 1551 1552 1552 1551 1551 1551 1551 1551 1550 1550 1549 1548 1547 1546 1545 1544 1543 1542 1541 1540 1539 1538 1537 1536 1535 1534
1548 1548 1548 1548 1549 1549 1549 1549 1549 1550 1550 1551 1551 1551 1551 1551 1551 1551 1551 1550 1550 1549 1549 1548 1547 1546 1545 1544 1543 1542 1541 1539 1538 1537 1536 1535 1534 1533
1547 1547 1548 1548 1548 1548 1549 1549 1549 1549 1549 1549 1550 1550 1550 1550 1550 1550 1550 1549 1549 1549 1548 1547 1546 1545 1544 1543 1542 1541 1540 1538 1537 1536 1535 1534 1533 1532
1547 1547 1547 1547 1547 1548 1548 1548 1549 1549 1549 1549 1550 1550 1550 1550 1549 1549 1549 1549 1548 1548 1547 1547 1546 1545 1543 1542 1541 1540 1539 1537 1536 1535 1534 1532 1531 1530
1546 1546 1546 1547 1547 1547 1548 1548 1548 1548 1548 1549 1549 1549 1549 1549 1549 1548 1548 1548 1547 1547 1546 1546 1545 1544 1542 1541 1540 1539 1537 1536 1535 1533 1532 1531 1530 1528
1545 1545 1545 1545 1546 1546 1546 1547 1547 1547 1548 1548 1548 1548 1548 1547 1547 1547 1547 1546 1546 1546 1545 1544 1543 1542 1541 1540 1538 1537 1536 1535 1533 1532 1530 1529 1528 1527
1543 1544 1544 1544 1544 1545 1545 1546 1546 1546 1546 1546 1546 1546 1546 1546 1546 1545 1545 1545 1544 1545 1543 1542 1541 1540 1539 1538 1537 1536 1534 1533 1531 1530 1528 1527 1526 1524
1542 1542 1542 1543 1543 1544 1544 1544 1544 1545 1545 1545 1545 1545 1544 1544 1544 1543 1543 1542 1542 1542 1541 1540 1539 1537 1537 1536 1535 1534 1532 1531 1529 1528 1526 1525 1523 1522
1540 1540 1541 1541 1542 1542 1542 1542 1543 1543 1543 1543 1543 1543 1543 1542 1542 1542 1541 1540 1540 1540 1539 1537 1536 1535 1534 1533 1532 1531 1530 1529 1527 1525 1524 1522 1520 1519
1538 1539 1539 1539 1540 1540 1541 1540 1540 1541 1541 1541 1541 1540 1540 1540 1540 1539 1538 1537 1537 1537 1536 1535 1533 1532 1531 1530 1529 1528 1527 1526 1524 1522 1521 1519 1518 1516
1536 1537 1537 1538 1538 1538 1539 1538 1538 1538 1539 1538 1538 1538 1537 1537 1537 1536 1536 1535 1534 1533 1533 1532 1531 1530 1528 1527 1526 1525 1524 1522 1521 1519 1518 1517 1515 1513
1534 1535 1535 1536 1536 1536 1536 1536 1536 1536 1536 1535 1535 1535 1535 1534 1534 1533 1533 1532 1531 1531 1530 1529 1528 1527 1526 1524 1523 1522 1521 1519 1518 1516 1515 1513 1512 1510
1532 1532 1533 1533 1534 1534 1534 1534 1534 1533 1533 1533 1532 1532 1532 1531 1531 1530 1530 1529 1528 1528 1527 1526 1525 1524 1523 1521 1519 1518 1517 1515 1514 1512 1511 1509 1508 1506
1529 1530 1530 1530 1531 1531 1531 1531 1531 1530 1530 1529 1529 1529 1529 1528 1528 1527 1526 1526 1525 1524 1524 1523 1522 1521 1519 1518 1516 1515 1513 1511 1510 1508 1506 1505 1504 1502
1526 1526 1527 1527 1527 1527 1528 1527 1527 1527 1527 1526 1526 1526 1526 1525 1524 1524 1523 1522 1521 1520 1520 1519 1518 1517 1515 1514 1512 1510 1509 1507 1505 1504 1502 1501 1499 1498
1522 1523 1523 1523 1523 1524 1524 1524 1524 1524 1523 1523 1523 1522 1522 1521 1521 1520 1519 1518 1517 1516 1515 1514 1514 1512 1511 1510 1507 1506 1505 1503 1501 1500 1498 1496 1495 1494
1518 1518 1518 1519 1519 1520 1520 1520 1520 1520 1519 1519 1519 1519 1518 1517 1517 1516 1515 1514 1513 1512 1511 1510 1509 1507 1506 1504 1504 1502 1500 1498 1497 1495 1494 1491 1489 1489
1514 1514 1514 1515 1515 1516 1516 1516 1516 1516 1516 1515 1515 1515 1514 1513 1513 1512 1511 1510 1509 1508 1507 1506 1504 1502 1500 1498 1497 1498 1496 1493 1492 1490 1489 1487 1485 1484
1509 1509 1510 1510 1511 1511 1511 1511 1511 1511 1511 1510 1510 1510 1509 1509 1508 1507 1506 1505 1504 1503 1502 1501 1500 1498 1496 1495 1493 1492 1491 1489 1487 1485 1484 1482 1480 1479
1504 1505 1505 1506 1506 1507 1507 1507 1506 1506 1506 1506 1505 1505 1504 1504 1503 1502 1501 1500 1499 1498 1496 1495 1494 1494 1492 1491 1488 1486 1485 1485 1483 1481 1479 1477 1475 1473
1499 1500 1500 1501 1501 1501 1502 1501 1501 1501 1501 1500 1500 1499 1499 1498 1497 1496 1495 1494 1493 1492 1491 1490 1489 1488 1487 1485 1483 1481 1480 1479 1477 1476 1475 1474 1472 1468
1494 1495 1495 1495 1496 1496 1496 1496 1496 1496 1495 1495 1494 1493 1493 1492 1491 1490 1489 1488 1488 1487 1486 1485 1483 1482 1481 1480 1478 1476 1475 1473 1472 1470 1469 1468 1467 1466